Weather History for Gulfport, MS

Change the Weather History Date:

Sunday, March 24, 2013

  Actual Average Record
Temperature  
Mean Temperature 62 °F -  
Max Temperature 73 °F 71 °F 86 °F (1975)
Min Temperature 48 °F 50 °F 29 °F (1968)
Degree Days  
Heating Degree Days 4    
Growing Degree Days 12 (Base 50)    
Moisture  
Dew Point 55 °F    
Average Humidity 71    
Maximum Humidity 96    
Minimum Humidity 23    
Precipitation  
Precipitation 0.00 in - - ()
Sea Level Pressure  
Sea Level Pressure 29.70 in    
Wind  
Wind Speed 10 mph (NW)    
Max Wind Speed 21 mph    
Max Gust Speed 31 mph    
Visibility 9 miles    
Events      
Averages and records for this station are not official NWS values.
T = Trace of Precipitation, MM = Missing Value Source: NWS Daily Summary

Daily Weather History Graph

Daily Weather History Graph

Search for Another Location

Airport:

Trip Planner

Search our weather history database for the weather conditions in past years. The results will help you decide how hot, cold, wet, or windy it might be!

Date:

Astronomy

Mar. 24, 2013 Rise Set
Actual Time 6:54 AM CDT 7:10 PM CDT
Civil Twilight 6:30 AM CDT 7:34 PM CDT
Nautical Twilight 6:02 AM CDT 8:02 PM CDT
Astronomical Twilight 5:34 AM CDT 8:30 PM CDT
Moon 4:46 PM CDT (3/24) 4:54 AM CDT (3/24)
Length of Visible Light 13h 03m
Length of Day
12h 15m
Waxing Gibbous, 92% of the Moon is Illuminated
Mar 24
Waxing Gibbous
Mar 27
Full
Apr 2
Last Quarter
Apr 10
New
Apr 18
First Quarter

Hourly Weather History & Observations

Time (CDT) Temp. Dew Point Humidity Pressure Visibility Wind Dir Wind Speed Gust Speed Precip Events Conditions
12:53 AM 69.1 °F 66.9 °F 93% 29.59 in 3.0 mi SSW 8.1 mph - 0.00 in   Overcast
1:53 AM 69.1 °F 68.0 °F 96% 29.59 in 3.0 mi SW 5.8 mph - N/A   Overcast
2:32 AM 69.8 °F 68.0 °F 94% 29.59 in 4.0 mi WSW 5.8 mph - N/A   Overcast
2:53 AM 70.0 °F 68.0 °F 93% 29.58 in 5.0 mi WSW 5.8 mph - N/A   Overcast
3:15 AM 69.8 °F 68.0 °F 94% 29.59 in 5.0 mi West 8.1 mph - N/A   Overcast
3:53 AM 71.1 °F 68.0 °F 90% 29.59 in 7.0 mi West 9.2 mph - N/A   Overcast
4:08 AM 71.6 °F 68.0 °F 88% 29.59 in 7.0 mi WNW 8.1 mph - N/A   Mostly Cloudy
4:53 AM 70.0 °F 66.0 °F 87% 29.60 in 7.0 mi NNW 15.0 mph 19.6 mph N/A   Mostly Cloudy
5:03 AM 68.0 °F 64.4 °F 88% 29.60 in 10.0 mi NNW 11.5 mph - N/A   Mostly Cloudy
5:23 AM 66.2 °F 64.4 °F 94% 29.61 in 10.0 mi North 10.4 mph - N/A   Mostly Cloudy
5:53 AM 64.9 °F 62.1 °F 90% 29.61 in 10.0 mi North 9.2 mph - N/A   Mostly Cloudy
6:53 AM 64.0 °F 61.0 °F 90% 29.62 in 10.0 mi NNE 4.6 mph - N/A   Mostly Cloudy
6:57 AM 64.4 °F 60.8 °F 88% 29.62 in 10.0 mi NNE 4.6 mph - N/A   Overcast
7:53 AM 63.0 °F 60.1 °F 90% 29.65 in 10.0 mi WNW 8.1 mph - N/A   Overcast
8:53 AM 64.9 °F 62.1 °F 90% 29.69 in 10.0 mi West 9.2 mph - N/A   Mostly Cloudy
9:53 AM 66.0 °F 61.0 °F 84% 29.72 in 10.0 mi WNW 11.5 mph - N/A   Overcast
10:53 AM 71.1 °F 61.0 °F 70% 29.71 in 10.0 mi NW 6.9 mph 16.1 mph N/A   Clear
11:53 AM 73.9 °F 60.1 °F 62% 29.72 in 10.0 mi WNW 13.8 mph 21.9 mph N/A   Partly Cloudy
12:53 PM 73.9 °F 59.0 °F 59% 29.72 in 10.0 mi WNW 20.7 mph 26.5 mph N/A   Scattered Clouds
1:53 PM 70.0 °F 57.0 °F 63% 29.72 in 10.0 mi WNW 17.3 mph 27.6 mph N/A   Partly Cloudy
2:53 PM 70.0 °F 55.9 °F 61% 29.71 in 10.0 mi NW 18.4 mph 27.6 mph N/A   Scattered Clouds
3:53 PM 69.1 °F 52.0 °F 54% 29.72 in 10.0 mi NW 18.4 mph 31.1 mph N/A   Clear
4:53 PM 69.1 °F 46.9 °F 45% 29.73 in 10.0 mi NW 18.4 mph 27.6 mph N/A   Clear
5:53 PM 66.9 °F 28.0 °F 23% 29.74 in 10.0 mi WNW 18.4 mph 28.8 mph N/A   Clear
6:53 PM 64.0 °F 35.1 °F 34% 29.78 in 10.0 mi NW 15.0 mph 21.9 mph N/A   Clear
7:53 PM 59.0 °F 33.1 °F 38% 29.84 in 10.0 mi NNW 16.1 mph 27.6 mph N/A   Clear
8:53 PM 55.9 °F 32.0 °F 40% 29.88 in 10.0 mi NNW 16.1 mph 23.0 mph N/A   Clear
9:53 PM 52.0 °F 32.0 °F 47% 29.92 in 10.0 mi NW 10.4 mph - N/A   Clear
10:53 PM 50.0 °F 30.9 °F 48% 29.96 in 10.0 mi NNW 19.6 mph 29.9 mph N/A   Clear
11:53 PM 48.0 °F 30.9 °F 52% 29.97 in 10.0 mi NNW 13.8 mph 24.2 mph N/A   Clear